Weather History for KHNZ - October, 2013

Change the Weather History Date:

Friday, October 18, 2013

  Actual Average (KTDF) Record (KTDF)
Temperature  
Mean Temperature 60 °F -  
Max Temperature 68 °F 68 °F 85 °F (1963)
Min Temperature 52 °F 43 °F 27 °F (1976)
Degree Days  
Heating Degree Days 5    
Growing Degree Days 10 (Base 50)    
Moisture  
Dew Point 49 °F    
Average Humidity 69    
Maximum Humidity 94    
Minimum Humidity 39    
Precipitation  
Precipitation 0.01 in - - ()
Sea Level Pressure  
Sea Level Pressure 29.99 in    
Wind  
Wind Speed 3 mph (NNW)    
Max Wind Speed 8 mph    
Max Gust Speed -    
Visibility 10 miles    
Events      
Averages and records for this station are not official NWS values.
T = Trace of Precipitation, MM = Missing Value Source: NWS Daily Summary

Daily Weather History Graph

Daily Weather History Graph

Search for Another Location

Airport or City:

Trip Planner

Search our weather history database for the weather conditions in past years. The results will help you decide how hot, cold, wet, or windy it might be!

Date:

Astronomy

Oct. 18, 2013 Rise Set
Actual Time 7:24 AM EDT 6:33 PM EDT
Civil Twilight 6:58 AM EDT 6:59 PM EDT
Nautical Twilight 6:28 AM EDT 7:29 PM EDT
Astronomical Twilight 5:58 AM EDT 7:59 PM EDT
Moon 6:23 PM EDT (10/18) 6:57 AM EDT (10/18)
Length of Visible Light 12h 01m
Length of Day
11h 09m
Full, 100% of the Moon is Illuminated
Oct 18
Full
Oct 18
Full
Oct 26
Last Quarter
Nov 3
New
Nov 10
First Quarter

Hourly Weather History & Observations

Time (EDT) Temp. Dew Point Humidity Pressure Visibility Wind Dir Wind Speed Gust Speed Precip Events Conditions
12:15 AM 65.5 °F 62.8 °F 91% 29.89 in 10.0 mi WSW 5.8 mph - N/A   Scattered Clouds
12:35 AM 64.9 °F 62.6 °F 92% 29.89 in 10.0 mi SW 3.5 mph - N/A   Clear
12:55 AM 65.3 °F 63.0 °F 92% 29.89 in 10.0 mi SW 3.5 mph - N/A   Mostly Cloudy
1:15 AM 65.3 °F 63.1 °F 93% 29.90 in 10.0 mi Calm Calm - N/A   Overcast
1:35 AM 65.3 °F 63.1 °F 93% 29.90 in 7.0 mi Calm Calm - N/A   Overcast
1:55 AM 65.3 °F 62.6 °F 91% 29.91 in 10.0 mi WNW 3.5 mph - N/A   Overcast
2:15 AM 64.8 °F 61.2 °F 88% 29.91 in 10.0 mi NW 6.9 mph - N/A   Overcast
2:35 AM 63.7 °F 58.6 °F 84% 29.91 in 10.0 mi NW 5.8 mph - N/A   Scattered Clouds
2:55 AM 62.6 °F 56.5 °F 80% 29.92 in 10.0 mi NW 3.5 mph - N/A   Clear
3:15 AM 61.5 °F 55.6 °F 81% 29.92 in 10.0 mi NNW 4.6 mph - N/A   Clear
3:35 AM 60.8 °F 55.4 °F 82% 29.93 in 10.0 mi Calm Calm - N/A   Scattered Clouds
3:55 AM 59.9 °F 55.0 °F 84% 29.93 in 10.0 mi NW 3.5 mph - N/A   Scattered Clouds
4:15 AM 59.2 °F 54.0 °F 83% 29.94 in 10.0 mi NNW 3.5 mph - N/A   Scattered Clouds
4:35 AM 58.5 °F 52.9 °F 82% 29.94 in 10.0 mi NNW 3.5 mph - N/A   Scattered Clouds
4:55 AM 58.1 °F 51.3 °F 78% 29.94 in 10.0 mi NNW 6.9 mph - N/A   Mostly Cloudy
5:15 AM 56.7 °F 50.2 °F 79% 29.95 in 10.0 mi NNW 4.6 mph - N/A   Scattered Clouds
5:35 AM 56.3 °F 49.1 °F 77% 29.96 in 10.0 mi NNW 5.8 mph - N/A   Clear
5:55 AM 55.4 °F 48.6 °F 78% 29.97 in 10.0 mi NNW 3.5 mph - N/A   Clear
6:15 AM 54.9 °F 47.7 °F 77% 29.97 in 10.0 mi NNW 3.5 mph - N/A   Clear
6:35 AM 54.0 °F 47.3 °F 78% 29.98 in 10.0 mi NW 3.5 mph - N/A   Clear
6:55 AM 53.6 °F 46.4 °F 77% 29.98 in 10.0 mi NNW 3.5 mph - N/A   Clear
7:15 AM 53.2 °F 45.9 °F 76% 29.99 in 10.0 mi Calm Calm - N/A   Clear
7:35 AM 52.2 °F 46.4 °F 81% 29.99 in 10.0 mi Calm Calm - N/A   Clear
7:55 AM 52.3 °F 46.6 °F 81% 30.01 in 10.0 mi Calm Calm - N/A   Clear
8:15 AM 53.6 °F 46.0 °F 76% 30.01 in 10.0 mi NNW 3.5 mph - N/A   Clear
8:35 AM 55.4 °F 46.2 °F 71% 30.02 in 10.0 mi NW 4.6 mph - N/A   Clear
8:55 AM 56.7 °F 46.2 °F 68% 30.04 in 10.0 mi NNW 4.6 mph - N/A   Clear
9:15 AM 57.7 °F 45.9 °F 65% 30.04 in 10.0 mi NNW 3.5 mph - N/A   Clear
9:35 AM 58.8 °F 45.0 °F 60% 30.04 in 10.0 mi NNW 6.9 mph - N/A   Clear
9:55 AM 59.4 °F 43.7 °F 56% 30.05 in 10.0 mi North 6.9 mph - N/A   Clear
10:15 AM 60.8 °F 42.6 °F 51% 30.05 in 10.0 mi NNW 5.8 mph - N/A   Clear
10:35 AM 60.8 °F 42.6 °F 51% 30.06 in 10.0 mi NNW 8.1 mph - N/A   Clear
10:55 AM 62.2 °F 44.6 °F 52% 30.05 in 10.0 mi North 5.8 mph - N/A   Clear
11:15 AM 62.6 °F 43.2 °F 49% 30.06 in 10.0 mi NNE 5.8 mph - N/A   Clear
11:35 AM 63.5 °F 43.2 °F 47% 30.05 in 10.0 mi NNE 4.6 mph - N/A   Clear
11:55 AM 63.9 °F 42.6 °F 46% 30.06 in 10.0 mi NNW 3.5 mph - N/A   Clear
12:15 PM 64.8 °F 43.0 °F 45% 30.05 in 10.0 mi NNE 4.6 mph - N/A   Clear
12:35 PM 64.6 °F 41.4 °F 43% 30.04 in 10.0 mi Calm Calm - N/A   Clear
12:55 PM 64.6 °F 42.6 °F 45% 30.04 in 10.0 mi Calm Calm - N/A   Scattered Clouds
1:15 PM 66.6 °F 43.0 °F 42% 30.03 in 10.0 mi North 4.6 mph - N/A   Scattered Clouds
1:35 PM 67.6 °F 42.4 °F 40% 30.02 in 10.0 mi Calm Calm - N/A   Clear
1:55 PM 65.7 °F 41.2 °F 41% 30.01 in 10.0 mi Calm Calm - N/A   Scattered Clouds
2:15 PM 66.6 °F 42.6 °F 42% 30.00 in 10.0 mi Calm Calm - N/A   Overcast
2:35 PM 67.1 °F 42.6 °F 41% 30.00 in 10.0 mi Calm Calm - N/A   Overcast
2:55 PM 67.6 °F 43.2 °F 41% 29.99 in 10.0 mi Calm Calm - N/A   Overcast
3:15 PM 68.7 °F 43.0 °F 39% 29.99 in 10.0 mi Calm Calm - N/A   Scattered Clouds
3:35 PM 66.9 °F 43.2 °F 42% 29.99 in 10.0 mi Calm Calm - N/A   Mostly Cloudy
3:55 PM 67.1 °F 43.5 °F 42% 29.99 in 10.0 mi Calm Calm - N/A   Overcast
4:15 PM 67.1 °F 43.9 °F 43% 29.99 in 10.0 mi Calm Calm - N/A   Overcast
4:35 PM 67.1 °F 45.5 °F 46% 29.99 in 10.0 mi Calm Calm - N/A   Overcast
4:55 PM 67.1 °F 44.1 °F 43% 29.98 in 10.0 mi Calm Calm - N/A   Overcast
5:15 PM 67.1 °F 45.7 °F 46% 29.98 in 10.0 mi Calm Calm - N/A   Overcast
5:35 PM 66.2 °F 48.0 °F 52% 29.99 in 10.0 mi Calm Calm - N/A   Overcast
5:55 PM 65.3 °F 48.7 °F 55% 29.99 in 10.0 mi Calm Calm - N/A   Mostly Cloudy
6:15 PM 62.2 °F 52.2 °F 70% 29.99 in 10.0 mi Calm Calm - N/A   Scattered Clouds
6:35 PM 61.7 °F 50.5 °F 67% 29.99 in 10.0 mi Calm Calm - N/A   Clear
6:55 PM 60.3 °F 50.5 °F 70% 29.99 in 10.0 mi Calm Calm - N/A   Scattered Clouds
7:15 PM 59.2 °F 51.1 °F 74% 29.99 in 10.0 mi Calm Calm - N/A   Mostly Cloudy
7:35 PM 57.7 °F 51.8 °F 81% 29.99 in 10.0 mi Calm Calm - N/A   Mostly Cloudy
7:55 PM 57.6 °F 51.4 °F 80% 30.00 in 10.0 mi Calm Calm - N/A   Scattered Clouds
8:15 PM 57.4 °F 50.5 °F 78% 30.00 in 10.0 mi Calm Calm - N/A   Clear
8:35 PM 56.3 °F 52.3 °F 87% 30.01 in 10.0 mi Calm Calm - N/A   Clear
8:55 PM 55.9 °F 52.9 °F 89% 30.01 in 10.0 mi Calm Calm - N/A   Clear
9:15 PM 55.9 °F 52.7 °F 89% 30.01 in 10.0 mi Calm Calm - N/A   Clear
9:35 PM 55.9 °F 52.0 °F 87% 30.01 in 10.0 mi Calm Calm - N/A   Clear
9:55 PM 54.7 °F 51.6 °F 89% 30.01 in 10.0 mi South 3.5 mph - N/A   Clear
10:15 PM 53.4 °F 51.4 °F 93% 30.02 in 10.0 mi South 3.5 mph - N/A   Clear
10:35 PM 53.6 °F 51.4 °F 92% 30.02 in 10.0 mi Calm Calm - N/A   Scattered Clouds
10:55 PM 53.1 °F 51.3 °F 94% 30.02 in 7.0 mi Calm Calm - N/A   Mostly Cloudy
11:15 PM 52.9 °F 51.1 °F 94% 30.00 in 7.0 mi Calm Calm - N/A   Mostly Cloudy
11:35 PM 52.7 °F 50.9 °F 94% 30.00 in 7.0 mi Calm Calm - N/A   Scattered Clouds
11:55 PM 53.4 °F 51.8 °F 94% 30.00 in 7.0 mi Calm Calm - N/A   Mostly Cloudy